Regional Weather Roundup
Issued by NWS Newport/Morehead, NC

Home | Current Version | Previous Version | Text Only | Print | Product List | Glossary On
Versions: 1 2 3 4 5 6 7 8 9 10 11 12 13 14 15 16 17 18 19 20 21 22 23 24 25 26 27 28 29 30 31 32 33 34 35 36 37 38 39 40 41 42 43 44 45 46 47 48 49 50
000
ASUS42 KMHX 211725
RWRMHX
WEATHER ROUNDUP FOR EASTERN NORTH CAROLINA
NATIONAL WEATHER SERVICE NEWPORT/MOREHEAD CITY NC
1200 PM EST TUE NOV 21 2017

NOTE: "FAIR" INDICATES FEW OR NO CLOUDS BELOW 12,000 FEET
WITH NO SIGNIFICANT WEATHER AND/OR OBSTRUCTIONS TO VISIBILITY

NCZ015>017-031-032-045>047-102-103-211800-
NORTH COAST

CITY           SKY/WX    TMP DP  RH WIND       PRES   REMARKS
EDENTON        MOSUNNY   59  44  58 CALM      30.24F
ELIZABETH CITY MOSUNNY   60  45  57 NW6       30.23F
KITTY HAWK     CLOUDY    57  43  59 CALM      30.22F
MANTEO         CLOUDY    57  45  62 N7        30.23F

$$

NCZ045>047-081-094-103-104-211800-
CENTRAL COAST

CITY           SKY/WX    TMP DP  RH WIND       PRES   REMARKS
FRISCO         CLOUDY    65  50  58 NE3       30.22F

$$

NCZ095-097-098-100-101-211800-
SOUTHERN COAST

CITY           SKY/WX    TMP DP  RH WIND       PRES   REMARKS
BEAUFORT       CLOUDY    66  53  63 NE5       30.20F
CEDAR ISLAND   NOT AVBL
JACKSONVILLE   CLOUDY    61  49  64 E6        30.20F
PINEY ISLAND   NOT AVBL
WILMINGTON     PTSUNNY   66  51  58 E7        30.18F


$$

NCZ011>013-027>030-043-044-078>080-089-090>093-098-211800-
COASTAL PLAIN

CITY           SKY/WX    TMP DP  RH WIND       PRES   REMARKS
AHOSKIE        CLOUDY    58  38  47 S5        30.21F
CLINTON        MOSUNNY   63  45  53 E3        30.18F
ELIZABETHTOWN  NOT AVBL
GOLDSBORO      MOSUNNY   61  44  54 E5        30.19F
GREENVILLE     MOSUNNY   59  43  55 CALM      30.22F
HAVELOCK       NOT AVBL
KENANSVILLE    CLOUDY    61  46  59 E3        30.19F
KINSTON        CLOUDY    61  45  55 E3        30.22F
NEW BERN       CLOUDY    59  47  64 E5        30.23F
RICHLANDS      CLOUDY    61  48  62 E5        30.20F
ROCKY MOUNT    MOSUNNY   60  41  49 SE5       30.20F
WASHINGTON     PTSUNNY   58  43  57 CALM      30.22F
WHITEVILLE     CLOUDY    61  47  60 NE6       30.16F

$$

AMZ130-135-150-152-154-156-158-170-250-252-270-ANZ085-086-088-633-658-670-211800-
MARINE OBSERVATIONS

STATION/POSITION TIME  TEMP    WIND        PRES    WAVE   SWELL
                       AIR SEA DIR/SP/G            HT/PER HT/PER
                 (UTC) (F)     (DEG/KT/KT) (MB)    (FT/S) (FT/S)
CHESAPEAKE LIGHT NOT AVBL
64 E VA BEACH    1650   59 61  260/  8/ 10 1024.4    2/ 3   2/ 8
DUCK             1700   56 60  250/  6/  8 1023.1
2 E DUCK         1700      61                N/A     1/ 9
OREGON INLET     1700   60 53   CALM  /  1 1023.3
13E OREGON INLT  1648      63                N/A     1/ 6   2/ 6
HATTERAS CG      1700   59 57   10/  5/  6 1023.0
DIAMOND BUOY     1710   69 77  180/ 12/ 16 1023.2
CAPE LOOKOUT     1700           40/ 10/ 11 1022.8
BEAUFORT LAB     1700   64 59   80/  4/  5 1022.4
30 SE NEW RVR IN 1708   69 67  150/  8/ 12 1022.0
30 SE NEW RVR IN 1700      67                N/A     2/ 8
27 SE WRIGHTSVLE 1708   70 68  160/  8/ 14 1021.1
5 SE WRIGHTSVLE  1708   61 64   60/ 12/ 16 1021.9
225 S CAPE HAT   1650   73 76  110/ 21/ 25 1021.0    5/ 5   2/11
41 SE CHARLESTON 1710   73 74  130/ 16/ 19 1018.6

$$




USA.gov is the U.S. government's official web portal to all federal, state and local government web resources and services.